Flag for Germany Weather past 2 weeks in Celle, Lower Saxony, Germany

Now
54 °F

Fog.


Feels Like: 54 °F
Forecast: 64 / 87 °F
Wind: 1 mph from South

Location: Celle Airport

Current Time: Aug 29, 2015 at 2:37:47 AM

Latest Report: Aug 29, 2015 at 1:20 AM


Visibility: N/A

Pressure: 30.18 "Hg

Humidity: 94%

Dew point: 52 °F

Location of CelleLocation

Historic Weather in Celle — Graph

°F

Celle temperature yesterday

Maximum temperature yesterday: 68 °F (at 4:20 PM)
Minimum temperature yesterday: 55 °F (at 2:20 AM)
Average temperature yesterday: 60 °F

Past Weeks' High & Low Weather Summary

 TemperatureHumidityPressure
High86 °F (Aug 14, 4:48 PM)100% (Aug 15, 12:20 AM)30.30 "Hg (Aug 15, 12:20 AM)
Low52 °F (Aug 22, 6:20 AM)32% (Aug 21, 4:20 PM)29.59 "Hg (Aug 24, 7:20 PM)
Average66 °F77%29.94 "Hg
* Reported Aug 14 1:20 AM — Aug 29 1:20 AM, Celle, Weather by CustomWeather, © 2015

Note: Actual official high and low records may vary slightly from our data, if they occured in-between our weather recording intervals... More about our weather records

Advertising

Celle weather history for previous 24 hours

 ConditionsComfort  
Time TempWeatherWind HumidityBarometerVisibility
1:20 AM
Sat, Aug 29
54 °FFog.1 mph94%30.18 "HgN/A
12:20 AM54 °FFog.2 mph100%30.18 "HgN/A
11:20 PM
Fri, Aug 28
55 °FFog.2 mph94%30.15 "HgN/A
10:20 PM57 °FFog.1 mph94%30.15 "HgN/A
9:20 PM59 °FFog.2 mph88%30.12 "HgN/A
8:20 PM63 °FScattered clouds.2 mph83%30.09 "HgN/A
7:20 PM66 °FScattered clouds.3 mph68%30.09 "HgN/A
6:20 PM68 °FScattered clouds.5 mph60%30.09 "HgN/A
5:20 PM66 °FScattered clouds.5 mph64%30.09 "HgN/A
4:20 PM68 °FScattered clouds.6 mph60%30.09 "HgN/A
3:20 PM66 °FScattered clouds.9 mph60%30.07 "HgN/A
2:20 PM64 °FScattered clouds.9 mph64%30.07 "HgN/A
1:20 PM63 °FScattered clouds.10 mph73%30.07 "HgN/A
12:20 PM63 °FBroken clouds.12 mph73%30.04 "HgN/A
11:20 AM59 °FPartly sunny.10 mph82%30.04 "HgN/A
10:20 AM57 °FBroken clouds.8 mph94%30.04 "HgN/A
9:20 AM57 °FPartly sunny.8 mph94%30.01 "Hg6 mi
8:20 AM57 °FPartly sunny.7 mph94%29.98 "Hg5 mi
7:20 AM55 °FPassing clouds.5 mph94%29.98 "Hg4 mi
6:20 AM55 °FPassing clouds.5 mph100%29.95 "Hg4 mi
5:20 AM55 °FPassing clouds.2 mph100%29.95 "Hg4 mi
4:20 AM55 °FPartly cloudy.6 mph100%29.92 "Hg5 mi
3:20 AM55 °FLow clouds.6 mph100%29.89 "HgN/A
2:20 AM55 °FPassing clouds.3 mph100%29.89 "Hg6 mi
Weather by CustomWeather, © 2015

See weather overviewHow to use our weather pages